Warning: Javascript must be enabled to use all the features on this page!


Page Loading - Please Wait...

Click to hideNews Bulletins

Peak Streamflow for the Nation

USGS 13236500 DEADWOOD RIVER BL DEADWOOD RES NR LOWMAN ID

Valley County, Idaho
Hydrologic Unit Code 17050120
Latitude  44°17'31", Longitude 115°38'31" NAD83
Drainage area 109  square miles
Gage datum 5,180.52 feet above NGVD29
Output formats
Table
Graph
Tab-separated file
peakfq (watstore) format
Reselect output format
Water
Year
Date Gage
Height
(feet)
Stream-
flow
(cfs)
1927 1927-06-12 5.58 2,100
1928 1928-05-26 5.67 2,150
1929 1929-05-24 4.30 1,040
1930 1930-05-03 3.95 820
1931 1931-08-15 4.60 1,1806
1932 1932-08-06 4.93 1,5406
1933 1933-09-07 4.57 1,1406
1934 1934-08-24 4.69 1,2506
1935 1935-09-14   1,1801,6
1936 1936-08-27 4.323 1,1501,6
1937 1937-08-27 4.203 1,0706
1938 1938-06-10 4.653 1,3201,6
1939 1939-08-15 4.543 1,2206
1940 1940-08-25 4.203 1,0506
1941 1941-06-08 3.373 6751,6
1942 1942-08-26 4.103 9961,6
1943 1943-06-01 5.463 1,9406
1944 1944-08-20 4.973 1,4906
1945 1945-09-15 4.423 1,1706
1946 1946-05-09 4.203 1,0901,6
1947 1947-08-25 4.593 1,3106
1948 1948-09-13 5.153 1,7006
1949 1949-08-02 5.653 2,0906
1950 1950-06-20 5.233 1,7606
1951 1951-07-22 5.373 1,8906
1952 1952-06-07 5.983 2,0206
1953 1953-07-14 6.563 2,5806
1954 1954-07-27 7.793 2,2206
1955 1955-08-09 7.59 1,6206
1956 1956-06-07 8.93 2,1606
1957 1957-07-24 8.65 2,0406
1958 1958-08-11 8.01 1,8206
1959 1959-07-27 8.24 1,8506
1960 1960-08-30 8.54 2,0206
1961 1961-08-15 7.15 1,3606
1962 1962-08-30 6.77 1,2206
1963 1963-06-05 6.80 1,2206
1964 1964-06-17 6.35 1,0406
1965 1965-06-14 7.57 1,5006
1966 1966-08-28 5.45 7096
1967 1967-07-18 7.16 1,4306
1968 1968-06-28 6.56 1,1206
1969 1969-07-04 6.64 1,1006
1970 1970-06-10 7.85 1,6706
1971 1971-06-27 8.65 2,1006
1972 1972-08-22 6.82 1,2206
1973 1973-07-10 6.82 1,2906
1974 1974-06-25 8.47 1,9506
1975 1975-08-01 6.02 8671,6
1976 1976-07-11 6.03 8896
1977 1977-05-19 4.52 4876
1978 1978-09-19 6.41 1,0606
1979 1979-07-26 6.80 1,2106
1980 1980-07-20 6.83 1,2306
1981 1981-07-21 6.94 1,2706
1982 1982-06-23 8.85 2,1306
1983 1983-06-01 9.09 2,4406
1984 1984-06-15 8.26 1,7706
1985 1985-05-27 6.58 1,1606
1986 1986-06-02 8.97 2,0606
1987 1987-06-25 7.26 1,3206
1988 1988-06-24 6.40 9826
1989 1989-06-29 6.20 9326
1990 1990-08-31 6.43 1,0006
1991 1991-07-24   9331,6
1992 1992-07-29   7131,6
1993 1993-06-16 6.01 9356
1994 1994-07-03 6.23 9556
1995 1995-06-19 6.88 1,1806
1996 1996-06-10 8.31 1,7706
1997 1997-02-18   1,3001,6
1998 1998-06-14   9071,6
1999 1999-08-14   9551,6
2000 2000-09-01   9291,6
2001 2001-07-15   6221,6
2002 2002-08-10   1,0001,6
2003 2003-08-19   1,0201,6
2004 2004-08-13   1,3001,6
2005 2005-08-24   9931,6
2006 2006-06-09   1,3201,6
2007 2007-08-18   1,0701,6
2008 2008-06-19   1,0501,6
2009 2009-06-05   1,3901,6
2010 2010-06-10   1,2401,6
2011 2011-06-26   1,4301,6
2012 2012-05-24   1,1601,6
2013 2013-08-17   1,0001,6
2014 2014-05-29   1,3301,6
2015 2015-08-17 6.43 1,0206
2016 2016-08-15 6.62 1,0906
2017 2017-06-06 8.46 1,8406
2018 2018-05-26 6.75 1,1406
2019 2019-06-05 6.80 1,1606
2020 2020-08-19 6.52 1,0306
2021 2021-07-05 6.20 8656
?
  Peak Gage-Height Qualification Codes.
?
  Peak Streamflow Qualification Codes.